TimeCST,TemperatureF,Dew PointF,Humidity,Sea Level PressureIn,VisibilityMPH,Wind Direction,Wind SpeedMPH,Gust SpeedMPH,PrecipitationIn,Events,Conditions,WindDirDegrees,DateUTC
12:15 AM,36.0,23.2,60,30.34,10.0,SSE,4.6,-,N/A,,Clear,150,2012-11-29 06:15:00
12:35 AM,35.8,23.4,61,30.34,10.0,SSE,3.5,-,N/A,,Clear,150,2012-11-29 06:35:00
12:55 AM,34.5,23.9,65,30.34,10.0,SE,3.5,-,N/A,,Clear,140,2012-11-29 06:55:00
1:15 AM,34.2,24.3,67,30.34,10.0,SE,3.5,-,N/A,,Clear,140,2012-11-29 07:15:00
1:35 AM,34.5,24.3,66,30.34,10.0,SE,3.5,-,N/A,,Clear,140,2012-11-29 07:35:00
1:55 AM,34.9,24.3,65,30.34,10.0,SSE,4.6,-,N/A,,Clear,150,2012-11-29 07:55:00
2:15 AM,34.3,24.3,67,30.33,10.0,SE,3.5,-,N/A,,Clear,140,2012-11-29 08:15:00
2:35 AM,33.8,24.8,70,30.33,10.0,SE,4.6,-,N/A,,Clear,140,2012-11-29 08:35:00
2:55 AM,34.0,24.6,69,30.33,10.0,SSE,5.8,-,N/A,,Clear,150,2012-11-29 08:55:00
3:15 AM,34.0,25.0,70,30.32,10.0,SSE,4.6,-,N/A,,Clear,150,2012-11-29 09:15:00
3:35 AM,34.0,25.3,71,30.32,10.0,SSE,4.6,-,N/A,,Clear,160,2012-11-29 09:35:00
3:55 AM,33.4,25.3,72,30.32,10.0,SSE,3.5,-,N/A,,Clear,150,2012-11-29 09:55:00
4:15 AM,33.1,25.5,74,30.32,10.0,SE,3.5,-,N/A,,Clear,140,2012-11-29 10:15:00
4:35 AM,33.8,25.7,72,30.32,10.0,SE,4.6,-,N/A,,Clear,140,2012-11-29 10:35:00
4:55 AM,33.8,25.9,73,30.32,10.0,SSE,5.8,-,N/A,,Clear,150,2012-11-29 10:55:00
5:15 AM,33.8,26.2,74,30.32,7.0,SSE,4.6,-,N/A,,Clear,150,2012-11-29 11:15:00
5:35 AM,34.2,26.2,73,30.32,7.0,SE,3.5,-,N/A,,Clear,140,2012-11-29 11:35:00
5:55 AM,33.8,26.2,74,30.32,7.0,SE,4.6,-,N/A,,Clear,140,2012-11-29 11:55:00
6:15 AM,34.2,26.2,73,30.32,7.0,SSE,4.6,-,N/A,,Clear,160,2012-11-29 12:15:00
6:35 AM,34.7,26.1,71,30.32,10.0,SSE,4.6,-,N/A,,Clear,150,2012-11-29 12:35:00
6:55 AM,35.6,26.6,70,30.32,10.0,SSE,4.6,-,N/A,,Clear,150,2012-11-29 12:55:00
7:15 AM,35.1,25.7,69,30.32,7.0,SSE,4.6,-,N/A,,Clear,150,2012-11-29 13:15:00
7:35 AM,35.1,25.7,69,30.32,7.0,SSE,4.6,-,N/A,,Clear,160,2012-11-29 13:35:00
7:55 AM,35.6,26.6,70,30.32,7.0,SSE,4.6,-,N/A,,Clear,160,2012-11-29 13:55:00
8:15 AM,37.2,26.6,65,30.32,10.0,SSE,4.6,-,N/A,,Clear,160,2012-11-29 14:15:00
8:35 AM,39.0,26.8,62,30.31,10.0,SSE,6.9,-,N/A,,Clear,160,2012-11-29 14:35:00
8:55 AM,40.8,27.9,60,30.31,10.0,South,6.9,-,N/A,,Clear,170,2012-11-29 14:55:00
9:15 AM,43.2,27.5,54,30.31,10.0,South,9.2,-,N/A,,Clear,170,2012-11-29 15:15:00
9:35 AM,44.6,27.7,52,30.30,10.0,South,9.2,-,N/A,,Clear,180,2012-11-29 15:35:00
9:55 AM,45.3,28.2,51,30.30,10.0,South,9.2,-,N/A,,Clear,180,2012-11-29 15:55:00
10:15 AM,46.6,28.4,49,30.29,10.0,South,10.4,-,N/A,,Clear,180,2012-11-29 16:15:00
10:35 AM,48.2,28.4,46,30.28,10.0,South,11.5,-,N/A,,Clear,180,2012-11-29 16:35:00
10:55 AM,49.1,29.1,46,30.27,10.0,South,13.8,18.4,N/A,,Clear,180,2012-11-29 16:55:00
11:15 AM,49.6,28.8,45,30.26,10.0,South,18.4,-,N/A,,Clear,190,2012-11-29 17:15:00
11:35 AM,50.0,30.2,47,30.25,10.0,South,15.0,20.7,N/A,,Clear,190,2012-11-29 17:35:00
11:55 AM,51.1,29.1,43,30.24,10.0,South,13.8,-,N/A,,Clear,180,2012-11-29 17:55:00
12:15 PM,51.8,29.5,42,30.23,10.0,South,13.8,19.6,N/A,,Clear,170,2012-11-29 18:15:00
12:35 PM,52.7,29.5,41,30.22,10.0,SSW,15.0,-,N/A,,Clear,200,2012-11-29 18:35:00
12:55 PM,53.2,29.8,41,30.21,10.0,SSW,15.0,-,N/A,,Clear,200,2012-11-29 18:55:00
1:15 PM,54.0,28.8,38,30.20,10.0,South,12.7,-,N/A,,Clear,190,2012-11-29 19:15:00
1:35 PM,54.5,28.9,38,30.19,10.0,South,8.1,-,N/A,,Clear,170,2012-11-29 19:35:00
1:55 PM,55.0,28.0,35,30.18,10.0,South,10.4,-,N/A,,Clear,170,2012-11-29 19:55:00
2:15 PM,55.2,28.0,35,30.17,10.0,South,10.4,-,N/A,,Clear,170,2012-11-29 20:15:00
2:35 PM,55.4,27.5,34,30.17,10.0,South,10.4,-,N/A,,Clear,180,2012-11-29 20:35:00
2:55 PM,55.4,26.6,33,30.17,10.0,SSE,8.1,-,N/A,,Clear,160,2012-11-29 20:55:00
3:15 PM,54.3,26.4,34,30.17,10.0,SSE,6.9,-,N/A,,Clear,160,2012-11-29 21:15:00
3:35 PM,54.5,25.3,32,30.16,10.0,South,10.4,-,N/A,,Clear,170,2012-11-29 21:35:00
3:55 PM,54.3,24.8,32,30.16,10.0,South,9.2,-,N/A,,Clear,170,2012-11-29 21:55:00
4:15 PM,53.8,24.8,33,30.15,10.0,SSE,6.9,-,N/A,,Clear,160,2012-11-29 22:15:00
4:35 PM,53.6,25.0,33,30.16,10.0,SSE,6.9,-,N/A,,Clear,150,2012-11-29 22:35:00
4:55 PM,51.8,25.9,37,30.17,10.0,South,5.8,-,N/A,,Clear,170,2012-11-29 22:55:00
5:15 PM,51.1,25.3,37,30.16,10.0,SSE,4.6,-,N/A,,Clear,150,2012-11-29 23:15:00
5:35 PM,51.1,24.6,36,30.16,10.0,SSE,4.6,-,N/A,,Clear,150,2012-11-29 23:35:00
5:55 PM,50.7,24.6,36,30.17,10.0,SSE,5.8,-,N/A,,Clear,160,2012-11-29 23:55:00
6:15 PM,50.5,24.4,36,30.16,10.0,SSE,6.9,-,N/A,,Clear,160,2012-11-30 00:15:00
6:35 PM,49.3,25.3,39,30.17,10.0,South,5.8,-,N/A,,Clear,170,2012-11-30 00:35:00
6:55 PM,49.6,24.6,38,30.17,10.0,South,8.1,-,N/A,,Clear,180,2012-11-30 00:55:00
7:15 PM,49.1,24.8,39,30.17,10.0,South,8.1,-,N/A,,Clear,180,2012-11-30 01:15:00
7:35 PM,48.7,25.7,41,30.17,10.0,South,8.1,-,N/A,,Clear,180,2012-11-30 01:35:00
7:55 PM,48.4,25.9,42,30.17,10.0,South,8.1,-,N/A,,Clear,180,2012-11-30 01:55:00
8:15 PM,48.2,26.4,43,30.17,10.0,South,8.1,-,N/A,,Clear,180,2012-11-30 02:15:00
8:35 PM,48.0,26.4,43,30.17,10.0,South,8.1,-,N/A,,Clear,170,2012-11-30 02:35:00
8:55 PM,48.0,26.4,43,30.16,10.0,South,10.4,-,N/A,,Clear,170,2012-11-30 02:55:00
9:15 PM,47.7,26.4,44,30.15,10.0,South,9.2,-,N/A,,Clear,170,2012-11-30 03:15:00
9:35 PM,48.2,25.7,42,30.16,10.0,South,10.4,-,N/A,,Clear,180,2012-11-30 03:35:00
9:55 PM,47.8,25.7,42,30.16,10.0,South,9.2,-,N/A,,Clear,180,2012-11-30 03:55:00
10:15 PM,48.2,25.0,40,30.15,10.0,South,11.5,-,N/A,,Clear,180,2012-11-30 04:15:00
10:35 PM,48.0,24.6,40,30.15,10.0,South,11.5,-,N/A,,Clear,180,2012-11-30 04:35:00
10:55 PM,47.8,23.9,39,30.15,10.0,South,11.5,-,N/A,,Clear,170,2012-11-30 04:55:00
11:15 PM,47.5,23.9,40,30.14,10.0,South,11.5,16.1,N/A,,Clear,180,2012-11-30 05:15:00
11:35 PM,47.5,23.7,39,30.15,10.0,South,13.8,18.4,N/A,,Clear,180,2012-11-30 05:35:00
11:55 PM,47.5,24.4,41,30.15,10.0,South,12.7,-,N/A,,Clear,190,2012-11-30 05:55:00